Home   Weather   Philipsburg   Past weeks
Flag for Sint Maarten

Past Weather in Philipsburg, Sint Maarten — Yesterday and Last 2 Weeks

Now
77 °F

Partly cloudy.


Feels Like: 79 °F
Forecast: 83 / 77 °F
Wind: 14 mph from East

Location: Juliana Airport - Saint Maarten

Current Time: Mar 26, 2019 at 3:03:27 am

Latest Report: Mar 26, 2019 at 2:00 am


Visibility: N/A

Pressure: 29.98 "Hg

Humidity: 79%

Dew Point: 70 °F

Location of PhilipsburgLocation

Past Weather in Philipsburg — Graph

°F

Philipsburg Temperature Yesterday

Maximum temperature yesterday: 82 °F (at 10:00 am)
Minimum temperature yesterday: 77 °F (at 12:00 am)
Average temperature yesterday: 79 °F

High & Low Weather Summary for the Past Weeks

 TemperatureHumidityPressure
High84 °F (Mar 11, 11:00 am)83% (Mar 20, 5:00 am)30.15 "Hg (Mar 20, 5:00 am)
Low73 °F (Mar 18, 5:00 am)43% (Mar 18, 12:00 pm)29.95 "Hg (Mar 12, 4:00 am)
Average79 °F69%30.02 "Hg
* Reported Mar 11 2:00 am — Mar 26 2:00 am, Philipsburg. Weather by CustomWeather, © 2019

Note: Actual official high and low records may vary slightly from our data, if they occured in-between our weather recording intervals... More about our weather records

Advertising

Philipsburg Weather History for the Previous 24 Hours

Scroll right to see more
 ConditionsComfort  
Time TempWeatherWind HumidityBarometerVisibility
2:00 am
Tue, Mar 26
77 °FPartly cloudy.14 mph79%29.98 "HgN/A
1:00 am77 °FPassing clouds.13 mph79%30.01 "HgN/A
12:00 am77 °FPassing clouds.10 mph79%30.04 "HgN/A
11:00 pm
Mon, Mar 25
77 °FPassing clouds.16 mph79%30.04 "HgN/A
10:00 pm77 °FSprinkles. Passing clouds.14 mph83%30.04 "HgN/A
9:00 pm79 °FPassing clouds.14 mph74%30.04 "HgN/A
8:00 pm79 °FPassing clouds.16 mph74%30.01 "HgN/A
7:00 pm79 °FPassing clouds.14 mph74%30.01 "HgN/A
6:00 pm81 °FPassing clouds.16 mph70%29.98 "HgN/A
5:00 pm81 °FScattered clouds.16 mph66%29.98 "HgN/A
4:00 pm82 °FPassing clouds.14 mph62%29.98 "HgN/A
3:00 pm82 °FPassing clouds.16 mph62%29.98 "HgN/A
2:00 pm82 °FPassing clouds.17 mph66%30.01 "HgN/A
1:00 pm82 °FScattered clouds.18 mph62%30.04 "HgN/A
12:00 pm82 °FScattered clouds.16 mph66%30.07 "HgN/A
11:00 am82 °FScattered clouds.17 mph62%30.07 "HgN/A
10:00 am82 °FPassing clouds.16 mph62%30.07 "HgN/A
9:00 am81 °FPassing clouds.16 mph66%30.07 "HgN/A
8:00 am79 °FScattered clouds.13 mph65%30.07 "HgN/A
7:00 am77 °FPassing clouds.14 mph69%30.04 "HgN/A
6:00 am77 °FPassing clouds.14 mph69%30.04 "HgN/A
5:00 am77 °FPassing clouds.16 mph74%30.01 "HgN/A
4:00 am77 °FPassing clouds.16 mph74%30.01 "HgN/A
3:00 am77 °FPassing clouds.13 mph74%30.04 "HgN/A
Weather by CustomWeather, © 2019

See weather overview